{"data":{"norad_id":59924,"intl_designator":"2024-106C","name":"STARLINK-31958","alt_names":[],"object_type":"PAYLOAD","status":"ACTIVE","operator":null,"country":"US","launch_date":"2024-06-01","launch_site_code":"AFETR","launch_vehicle":null,"mission":null,"orbit_class":"UNKNOWN","rcs_meters":null,"size_class":null,"mass_kg":null,"dimensions":null,"purposes":["comms"],"wikipedia_slug":null,"has_3d_model":false,"image_url":null,"decayed_at":null,"tle_current":{"epoch":"2026-09-21T13:00:35.810496Z","epoch_age_seconds":84493,"freshness":"FRESH","line1":"1 59924U 24106C   26264.54208114  .00002801  00000+0  11123-3 0  9998","line2":"2 59924  43.0022 291.9426 0001246 254.6731 105.3984 15.27593620130640","mean_motion":15.2759362,"eccentricity":0.0001246,"inclination_deg":43.0022,"raan_deg":291.9426,"arg_perigee_deg":254.6731,"mean_anomaly_deg":105.3984,"bstar":0.00011123,"rev_number":13064,"period_min":94.265908232845,"perigee_km":482.15341445688,"apogee_km":483.86321186892,"semimajor_km":6861.1453131629,"source":"CELESTRAK","updated_at":"2026-09-22T09:00:49.111003Z"}}}